Weather History for McAllen, TX

Change the Weather History Date:

Monday, March 11, 2013

  Actual Average Record
Temperature  
Mean Temperature 66 °F 70 °F  
Max Temperature 80 °F 81 °F 99 °F (2006)
Min Temperature 51 °F 59 °F 33 °F (1885)
Degree Days  
Heating Degree Days 0 2  
Month to date heating degree days 12 22  
Since 1 July heating degree days 308 555  
Cooling Degree Days 1 6  
Month to date cooling degree days 48 61  
Year to date cooling degree days 297 220  
Growing Degree Days 14 (Base 50)    
Moisture  
Dew Point 25 °F    
Average Humidity 30    
Maximum Humidity 51    
Minimum Humidity 8    
Precipitation  
Precipitation 0.00 in 0.03 in 2.11 in (1997)
Month to date precipitation T 0.40  
Year to date precipitation 0.99 2.56  
Sea Level Pressure  
Sea Level Pressure 30.10 in    
Wind  
Wind Speed 9 mph (NNW)    
Max Wind Speed 20 mph    
Max Gust Speed 26 mph    
Visibility 10 miles    
Events      
T = Trace of Precipitation, MM = Missing Value Source: NWS Daily Summary

Daily Weather History Graph

Daily Weather History Graph

Search for Another Location

Airport:

Trip Planner

Search our weather history database for the weather conditions in past years. The results will help you decide how hot, cold, wet, or windy it might be!

Date:

Astronomy

Mar. 11, 2013 Rise Set
Actual Time 7:46 AM CDT 7:39 PM CDT
Civil Twilight 7:23 AM CDT 8:02 PM CDT
Nautical Twilight 6:56 AM CDT 8:29 PM CDT
Astronomical Twilight 6:29 AM CDT 8:56 PM CDT
Moon 7:23 AM CDT (3/11) 7:47 PM CDT (3/11)
Length of Visible Light 12h 39m
Length of Day
11h 53m
Waning Crescent, 0% of the Moon is Illuminated
Mar 11
Waning Crescent
Mar 11
New
Mar 19
First Quarter
Mar 27
Full
Apr 2
Last Quarter

Hourly Weather History & Observations

Time (CDT) Temp. Dew Point Humidity Pressure Visibility Wind Dir Wind Speed Gust Speed Precip Events Conditions
12:53 AM 66.0 °F 30.0 °F 26% 30.05 in 10.0 mi North 16.1 mph 24.2 mph N/A   Overcast
1:53 AM 64.0 °F 30.0 °F 28% 30.07 in 10.0 mi North 15.0 mph 23.0 mph N/A   Partly Cloudy
2:53 AM 62.1 °F 28.9 °F 29% 30.08 in 10.0 mi North 15.0 mph - N/A   Clear
3:53 AM 60.1 °F 28.9 °F 31% 30.08 in 10.0 mi North 13.8 mph - N/A   Clear
4:53 AM 57.9 °F 30.0 °F 35% 30.08 in 10.0 mi North 8.1 mph - N/A   Clear
5:53 AM 57.0 °F 30.0 °F 36% 30.11 in 10.0 mi North 9.2 mph - N/A   Clear
6:53 AM 52.0 °F 30.0 °F 43% 30.13 in 10.0 mi NW 5.8 mph - N/A   Clear
7:53 AM 51.1 °F 32.0 °F 48% 30.16 in 10.0 mi West 4.6 mph - N/A   Clear
8:53 AM 54.0 °F 30.9 °F 41% 30.19 in 10.0 mi WNW 4.6 mph - N/A   Clear
9:53 AM 60.1 °F 30.0 °F 32% 30.20 in 10.0 mi NW 4.6 mph - N/A   Clear
10:53 AM 63.0 °F 26.1 °F 25% 30.19 in 10.0 mi Variable 3.5 mph - N/A   Clear
11:53 AM 69.1 °F 21.0 °F 16% 30.19 in 10.0 mi NW 9.2 mph 16.1 mph N/A   Clear
12:53 PM 73.0 °F 17.1 °F 12% 30.15 in 10.0 mi NNW 13.8 mph 19.6 mph N/A   Clear
1:53 PM 73.9 °F 17.1 °F 12% 30.11 in 10.0 mi NW 10.4 mph 18.4 mph N/A   Clear
2:53 PM 77.0 °F 16.0 °F 10% 30.07 in 10.0 mi NNW 15.0 mph 20.7 mph N/A   Clear
3:53 PM 78.1 °F 15.1 °F 9% 30.03 in 10.0 mi NW 9.2 mph - N/A   Clear
4:53 PM 78.1 °F 14.0 °F 9% 30.01 in 10.0 mi West 10.4 mph 21.9 mph N/A   Clear
5:53 PM 78.1 °F 12.0 °F 8% 30.00 in 10.0 mi NNW 15.0 mph 20.7 mph N/A   Clear
6:53 PM 75.9 °F 10.9 °F 8% 30.01 in 10.0 mi North 8.1 mph - N/A   Clear
7:53 PM 71.1 °F 16.0 °F 12% 30.03 in 10.0 mi NNE 5.8 mph - N/A   Clear
8:53 PM 66.0 °F 30.0 °F 26% 30.06 in 10.0 mi ESE 10.4 mph - N/A   Clear
9:53 PM 62.1 °F 37.0 °F 39% 30.09 in 10.0 mi ESE 9.2 mph - N/A   Clear
10:53 PM 57.0 °F 36.0 °F 45% 30.11 in 10.0 mi SE 4.6 mph - N/A   Clear
11:53 PM 55.0 °F 37.0 °F 51% 30.12 in 10.0 mi SSE 4.6 mph - N/A   Clear